Weather History for KTTA - March, 2014

Change the Weather History Date:

Wednesday, March 26, 2014

  Actual Average (KRDU) Record (KRDU)
Temperature  
Mean Temperature 38 °F 54 °F  
Max Temperature 47 °F 67 °F 87 °F (1929)
Min Temperature 28 °F 43 °F 22 °F (1940)
Degree Days  
Heating Degree Days 28 11  
Month to date heating degree days 374  
Since 1 July heating degree days 2946  
Cooling Degree Days 0 0  
Month to date cooling degree days 0  
Year to date cooling degree days 1  
Moisture  
Dew Point 17 °F    
Average Humidity 46    
Maximum Humidity 78    
Minimum Humidity 22    
Precipitation  
Precipitation 0.00 in 0.14 in 1.18 in (1888)
Month to date precipitation 3.46  
Year to date precipitation 10.19  
Snow  
Snow 0.00 in 0.00 in 5.20 in (1971)
Month to date snowfall 0.5  
Since 1 July snowfall 6.0  
Snow Depth -    
Sea Level Pressure  
Sea Level Pressure 30.18 in    
Wind  
Wind Speed 8 mph (WNW)    
Max Wind Speed 17 mph    
Max Gust Speed 24 mph    
Visibility 10 miles    
Events      
T = Trace of Precipitation, MM = Missing Value Source: NWS Daily Summary

Daily Weather History Graph

Daily Weather History Graph

Search for Another Location

Airport or City:

Trip Planner

Search our weather history database for the weather conditions in past years. The results will help you decide how hot, cold, wet, or windy it might be!

Date:

Astronomy

Mar. 26, 2014 Rise Set
Actual Time 7:11 AM EDT 7:33 PM EDT
Civil Twilight 6:45 AM EDT 7:58 PM EDT
Nautical Twilight 6:16 AM EDT 8:28 PM EDT
Astronomical Twilight 5:45 AM EDT 8:59 PM EDT
Moon 4:09 AM EDT (3/26) 3:17 PM EDT (3/26)
Length of Visible Light 13h 12m
Length of Day
12h 21m
Waning Crescent, 22% of the Moon is Illuminated
Mar 26
Waning Crescent
Mar 30
New
Apr 7
First Quarter
Apr 15
Full
Apr 22
Last Quarter

Hourly Weather History & Observations

Time (EDT) Temp. Windchill Dew Point Humidity Pressure Visibility Wind Dir Wind Speed Gust Speed Precip Events Conditions
12:15 AM 37.6 °F 34.0 °F 23.2 °F 56% 29.96 in 10.0 mi West 4.6 mph - N/A   Unknown
12:35 AM 37.6 °F 29.6 °F 23.4 °F 57% 29.97 in 10.0 mi WNW 12.7 mph 17.3 mph N/A   Unknown
12:55 AM 37.6 °F 29.6 °F 21.4 °F 52% 29.98 in 10.0 mi WNW 12.7 mph 16.1 mph N/A   Unknown
1:15 AM 37.4 °F 30.3 °F 20.1 °F 50% 29.99 in 10.0 mi NW 10.4 mph 17.3 mph N/A   Unknown
1:35 AM 37.0 °F 30.4 °F 19.9 °F 50% 29.99 in 10.0 mi NW 9.2 mph 16.1 mph N/A   Unknown
1:55 AM 36.5 °F 32.7 °F 20.7 °F 53% 30.00 in 10.0 mi WNW 4.6 mph - N/A   Unknown
2:15 AM 35.4 °F 31.5 °F 21.7 °F 58% 30.01 in 10.0 mi West 4.6 mph - N/A   Unknown
2:35 AM 35.2 °F 29.5 °F 23.2 °F 62% 30.02 in 10.0 mi WNW 6.9 mph - N/A   Unknown
2:55 AM 34.9 °F 30.8 °F 23.0 °F 62% 30.02 in 10.0 mi WNW 4.6 mph - N/A   Unknown
3:15 AM 34.5 °F 29.4 °F 23.0 °F 63% 30.03 in 10.0 mi WNW 5.8 mph - N/A   Unknown
3:35 AM 34.2 °F 30.0 °F 23.0 °F 64% 30.04 in 10.0 mi West 4.6 mph - N/A   Unknown
3:55 AM 32.9 °F 28.5 °F 23.0 °F 67% 30.04 in 10.0 mi West 4.6 mph - N/A   Unknown
4:15 AM 32.9 °F 28.5 °F 22.8 °F 66% 30.05 in 10.0 mi WNW 4.6 mph - N/A   Unknown
4:35 AM 32.9 °F 29.8 °F 22.3 °F 65% 30.05 in 10.0 mi WNW 3.5 mph - N/A   Unknown
4:55 AM 32.5 °F 28.1 °F 21.9 °F 65% 30.06 in 10.0 mi WNW 4.6 mph - N/A   Unknown
5:15 AM 32.5 °F 28.1 °F 21.9 °F 65% 30.07 in 10.0 mi WNW 4.6 mph - N/A   Unknown
5:35 AM 32.7 °F 25.0 °F 22.3 °F 65% 30.08 in 10.0 mi NW 9.2 mph - N/A   Unknown
5:55 AM 33.4 °F 25.9 °F 17.8 °F 53% 30.09 in 10.0 mi NW 9.2 mph 17.3 mph N/A   Unknown
6:15 AM 33.1 °F 23.9 °F 17.4 °F 53% 30.11 in 10.0 mi NW 12.7 mph 18.4 mph N/A   Unknown
6:35 AM 32.5 °F 24.2 °F 17.4 °F 54% 30.12 in 10.0 mi NW 10.4 mph 16.1 mph N/A   Unknown
6:55 AM 32.0 °F 27.5 °F 18.1 °F 57% 30.13 in 10.0 mi NW 4.6 mph - N/A   Unknown
7:15 AM 32.0 °F 26.4 °F 18.3 °F 57% 30.14 in 10.0 mi NW 5.8 mph - N/A   Unknown
7:35 AM 32.0 °F 27.5 °F 18.0 °F 56% 30.17 in 10.0 mi WNW 4.6 mph - N/A   Unknown
7:55 AM 31.6 °F 28.3 °F 18.3 °F 58% 30.17 in 10.0 mi NW 3.5 mph - N/A   Unknown
8:15 AM 32.0 °F 27.5 °F 18.3 °F 57% 30.17 in 10.0 mi WNW 4.6 mph - N/A   Unknown
8:35 AM 32.5 °F 29.3 °F 18.0 °F 55% 30.18 in 10.0 mi WNW 3.5 mph - N/A   Unknown
8:55 AM 33.8 °F 26.4 °F 16.5 °F 49% 30.19 in 10.0 mi West 9.2 mph - N/A   Unknown
9:15 AM 34.2 °F 27.5 °F 15.4 °F 46% 30.20 in 10.0 mi WNW 8.1 mph - N/A   Unknown
9:35 AM 35.2 °F 26.2 °F 16.0 °F 45% 30.21 in 10.0 mi WNW 13.8 mph 18.4 mph N/A   Unknown
9:55 AM 35.8 °F 28.8 °F 15.3 °F 43% 30.22 in 10.0 mi WNW 9.2 mph - N/A   Unknown
10:15 AM 36.0 °F 27.5 °F 14.0 °F 41% 30.23 in 10.0 mi WNW 12.7 mph 19.6 mph N/A   Unknown
10:35 AM 36.9 °F 29.6 °F 14.2 °F 40% 30.24 in 10.0 mi NW 10.4 mph 19.6 mph N/A   Unknown
10:55 AM 37.9 °F 29.6 °F 15.1 °F 39% 30.24 in 10.0 mi WNW 13.8 mph 18.4 mph N/A   Unknown
11:15 AM 38.1 °F 31.2 °F 13.3 °F 36% 30.24 in 10.0 mi WNW 10.4 mph 19.6 mph N/A   Unknown
11:35 AM 38.5 °F 31.1 °F 13.1 °F 35% 30.24 in 10.0 mi NNW 11.5 mph 19.6 mph N/A   Unknown
11:55 AM 39.4 °F 31.1 °F 13.3 °F 34% 30.25 in 10.0 mi WNW 15.0 mph 23.0 mph N/A   Unknown
12:15 PM 39.9 °F 31.4 °F 12.7 °F 33% 30.24 in 10.0 mi NW 16.1 mph - N/A   Unknown
12:35 PM 40.1 °F 36.9 °F 12.0 °F 32% 30.25 in 10.0 mi West 4.6 mph - N/A   Unknown
12:55 PM 41.0 °F 35.2 °F 12.4 °F 31% 30.25 in 10.0 mi West 9.2 mph 18.4 mph N/A   Unknown
1:15 PM 41.4 °F 35.7 °F 12.4 °F 31% 30.24 in 10.0 mi West 9.2 mph 21.9 mph N/A   Unknown
1:35 PM 42.4 °F 34.4 °F 13.3 °F 31% 30.24 in 10.0 mi West 17.3 mph 21.9 mph N/A   Unknown
1:55 PM 43.5 °F 37.1 °F 11.5 °F 27% 30.24 in 10.0 mi West 12.7 mph 19.6 mph N/A   Unknown
2:15 PM 44.1 °F 39.0 °F 11.5 °F 27% 30.23 in 10.0 mi WNW 9.2 mph 19.6 mph N/A   Unknown
2:35 PM 44.6 °F 37.4 °F 12.4 °F 27% 30.23 in 10.0 mi West 16.1 mph 23.0 mph N/A   Unknown
2:55 PM 44.4 °F 39.0 °F 11.3 °F 26% 30.22 in 10.0 mi NW 10.4 mph 16.1 mph N/A   Unknown
3:15 PM 44.6 °F 40.7 °F 10.6 °F 25% 30.22 in 10.0 mi West 6.9 mph 23.0 mph N/A   Unknown
3:35 PM 45.7 °F 40.6 °F 11.1 °F 25% 30.22 in 10.0 mi West 10.4 mph 18.4 mph N/A   Unknown
3:55 PM 46.6 °F - 12.6 °F 25% 30.22 in 10.0 mi West 13.8 mph 18.4 mph N/A   Unknown
4:15 PM 46.2 °F 39.8 °F 11.1 °F 24% 30.23 in 10.0 mi West 15.0 mph 24.2 mph N/A   Unknown
4:35 PM 46.8 °F - 9.5 °F 22% 30.22 in 10.0 mi NW 12.7 mph 20.7 mph N/A   Unknown
4:55 PM 46.4 °F 40.7 °F 10.6 °F 23% 30.22 in 10.0 mi West 12.7 mph 18.4 mph N/A   Unknown
5:15 PM 47.5 °F - 10.0 °F 22% 30.22 in 10.0 mi NW 12.7 mph 16.1 mph N/A   Unknown
5:35 PM 47.5 °F - 10.0 °F 22% 30.22 in 10.0 mi NW 9.2 mph 16.1 mph N/A   Unknown
5:55 PM 47.7 °F - 9.9 °F 22% 30.22 in 10.0 mi West 11.5 mph 17.3 mph N/A   Unknown
6:15 PM 47.7 °F - 10.6 °F 22% 30.22 in 10.0 mi West 9.2 mph - N/A   Unknown
6:35 PM 47.7 °F - 11.3 °F 23% 30.24 in 10.0 mi WNW 10.4 mph - N/A   Unknown
6:55 PM 47.3 °F - 10.4 °F 23% 30.24 in 10.0 mi WNW 6.9 mph - N/A   Unknown
7:15 PM 46.9 °F - 10.2 °F 23% 30.24 in 10.0 mi WNW 5.8 mph - N/A   Unknown
7:35 PM 46.0 °F 44.8 °F 10.9 °F 24% 30.24 in 10.0 mi WNW 3.5 mph - N/A   Unknown
7:55 PM 44.6 °F - 12.7 °F 28% 30.25 in 10.0 mi Calm Calm - N/A   Unknown
8:15 PM 38.5 °F - 21.4 °F 50% 30.25 in 10.0 mi Calm Calm - N/A   Unknown
8:35 PM 37.6 °F - 21.0 °F 51% 30.26 in 10.0 mi Calm Calm - N/A   Unknown
8:55 PM 35.6 °F - 20.1 °F 53% 30.27 in 10.0 mi Calm Calm - N/A   Unknown
9:15 PM 32.9 °F - 22.1 °F 65% 30.27 in 10.0 mi Calm Calm - N/A   Unknown
9:35 PM 33.1 °F - 22.3 °F 65% 30.28 in 10.0 mi Calm Calm - N/A   Unknown
9:55 PM 32.2 °F - 21.7 °F 65% 30.29 in 10.0 mi Calm Calm - N/A   Unknown
10:15 PM 30.4 °F - 22.1 °F 71% 30.30 in 10.0 mi Calm Calm - N/A   Unknown
10:35 PM 30.6 °F - 21.2 °F 68% 30.31 in 10.0 mi Calm Calm - N/A   Unknown
10:55 PM 29.8 °F - 22.3 °F 73% 30.32 in 10.0 mi Calm Calm - N/A   Unknown
11:15 PM 29.3 °F - 21.7 °F 73% 30.32 in 10.0 mi Calm Calm - N/A   Unknown
11:35 PM 28.4 °F - 22.5 °F 78% 30.33 in 10.0 mi Calm Calm - N/A   Unknown
11:55 PM 28.4 °F - 21.6 °F 76% 30.33 in 10.0 mi Calm Calm - N/A   Unknown